This is the latest recevied weather packets stored in our database for station/object KB2FWP. If no packets are shown the sender has not sent any weather packets the latest 10 day(s).
| Time | Temp. | Humidity | Pressure | Rain* | Wind** | Luminosity | Snow |
|---|---|---|---|---|---|---|---|
| 1777825840 | 11.67° C | 43% | 1012.2 hPa | 0 mm | - | - | - |
| 1777824940 | 12.22° C | 43% | 1012.3 hPa | 0 mm | - | - | - |
| 1777824040 | 11.11° C | 46% | 1012.4 hPa | 0 mm | - | - | - |
| 1777823198 | 11.67° C | 45% | 1012.4 hPa | 0 mm | - | - | - |
| 1777822238 | 12.22° C | 42% | 1012.3 hPa | 0 mm | - | - | - |
| 1777821335 | 12.22° C | 45% | 1012.4 hPa | 0 mm | - | - | - |
| 1777820433 | 12.22° C | 49% | 1012.4 hPa | 0 mm | - | - | - |
| 1777819530 | 11.67° C | 50% | 1012.5 hPa | 0 mm | - | - | - |
| 1777818629 | 11.67° C | 50% | 1012.4 hPa | 0 mm | - | - | - |
| 1777817726 | 11.67° C | 51% | 1012.5 hPa | 0 mm | - | - | - |
| 1777816824 | 11.11° C | 54% | 1012.5 hPa | 0 mm | - | - | - |
| 1777815920 | 10.56° C | 54% | 1012.4 hPa | 0 mm | - | - | - |
| 1777815023 | 10° C | 56% | 1012.5 hPa | 0 mm | - | - | - |
| 1777814119 | 9.44° C | 57% | 1012.3 hPa | 0 mm | - | - | - |
| 1777813217 | 9.44° C | 59% | 1012.3 hPa | 0 mm | - | - | - |
| 1777812315 | 8.89° C | 60% | 1012.2 hPa | 0 mm | - | - | - |
| 1777811414 | 8.33° C | 61% | 1012.2 hPa | 0 mm | - | - | - |
| 1777810514 | 7.78° C | 62% | 1012.3 hPa | 0 mm | - | - | - |
| 1777809613 | 7.78° C | 62% | 1012.2 hPa | 0 mm | - | - | - |
| 1777808713 | 7.78° C | 63% | 1012.3 hPa | 0 mm | - | - | - |
| 1777807810 | 7.22° C | 63% | 1012.2 hPa | 0 mm | - | - | - |
| 1777806908 | 7.22° C | 63% | 1012 hPa | 0 mm | - | - | - |
| 1777806007 | 7.22° C | 64% | 1011.8 hPa | 0 mm | - | - | - |
| 1777805104 | 7.22° C | 64% | 1011.7 hPa | 0 mm | - | - | - |
| 1777804201 | 7.22° C | 65% | 1011.4 hPa | 0 mm | - | - | - |
* Rain latest hour (hover to see other rain measurements)
** Current wind speed in m/s (hover to see current wind gust speed)